Weather in Tarma

Russia / Irkutsk Oblast     55°58′52″N   101°17′35″E
temp.,
°C
wind,
m/s
gust,
m/s
humid.,
%
clouds,
%
prec.,
mm/h
press.,
hPa
HPBL,
m
14 august, sun
sun1423:00+10sw11740 0.0 100810
02:00+9ssw11805 0.0 100810
05:00+8se118038 0.0 100810
08:00+12se1267100 0.0 1007128
11:00+16se2349100 0.0 1006715
14:00+20sse2444100 0.0 10051546
17:00+16ssw3569100 0.0 1005299
20:00+14ssw1182100 0.1 100421
15 august, mon
mon1523:00+13ssw2698100 0.6 1005154
02:00+13sw311955 0.6 1004494
05:00+11wsw3119482 0.0 1004460
08:00+13sw29882 0.0 1005524
11:00+18wsw51159100 0.1 10041550
14:00+20w41044100 0.2 10032502
17:00+13ssw3984100 0.6 1004469
20:00+13w410870 1.1 1005675
16 august, tue
tue1623:00+9wsw210970 0.1 1006382
02:00+7wsw11962 0.1 100616
05:00+7sw2297100 0.0 100741
08:00+10wsw27885 0.0 1007373
11:00+13wsw61059100 0.4 10061620
14:00+11w41169100 0.6 10071129
17:00+10wnw41177100 0.3 10071199
20:00+7w4988100 0.4 10081071
17 august, wed
wed1723:00+7w4891100 0.2 10091078
02:00+6w3895100 0.6 10091018
05:00+6w4796100 0.8 10091020
08:00+6w3796100 1.8 10101013
11:00+6w4895100 0.4 10101001
14:00+7w4794100 0.6 10111015
17:00+7w3794100 0.1 1011738
20:00+7w1694100 0.1 1012537
18 august, thu
thu1823:00+6ssw1296100 0.0 101275
02:00+6sw119893 0.0 101125
05:00+6wsw009897 0.0 101016
08:00+7n119043 0.0 1010240
11:00+12nw126399 0.0 1009872
14:00+14wnw4451100 0.0 10091626
17:00+12w2467100 0.1 1010768
20:00+9w2685100 0.2 1011337